[[{"header":{"parameterUnit":"m.s-1","parameterCategory":1,"la1":30.2991,"la2":30.254,"lo1":-89.0895,"lo2":-89.0444,"dy":0.0017,"dx":0.0017,"nx":28,"ny":28,"refTime":"2025-07-23T21:00:00:Z","depth":0,"parameterNumber":2,"parameterNumberName":"U-component_of_WINDS"},"data":[0,0,0,0,0,0,0,0,0,0,0,0,0,0,0,0,0,0,0,0,0,0,0,0,0,0,0,0,0,0,0,0,0,0,0,0,0,0,0,0,0,0,0,0,0,0,0,0,0,0,0,0,0,0,0,0,0,0,-6.4021,-6.4021,0,-6.4041,-6.4041,-6.4041,-6.4021,-6.4021,-6.402,-6.4019,-6.4037,-6.4038,-6.4039,0,0,0,0,0,0,0,0,0,0,0,0,0,-6.3962,-6.3963,-6.402,-6.4021,-6.4021,-6.4041,-6.4041,-6.4041,-6.4022,-6.4021,-6.402,-6.4019,-6.4036,-6.4038,-6.4039,0,0,0,0,0,0,0,0,0,0,0,0,0,-6.3985,-6.3963,-6.402,-6.4014,-6.4013,-6.404,-6.4041,-6.4041,-6.4022,-6.4021,-6.402,-6.4018,-6.4036,-6.4037,-6.4039,-6.4073,0,0,-6.4045,-6.4045,0,0,0,0,0,0,0,0,-6.3984,-6.3987,-6.4014,-6.4014,-6.4014,-6.4027,-6.4026,-6.4052,-6.4022,-6.4018,-6.4019,-6.4018,-6.4034,-6.4036,-6.4042,-6.4074,-6.4075,-6.4045,-6.4046,-6.4047,-6.4047,0,0,0,0,0,0,0,-6.3982,-6.3986,-6.4028,-6.4015,-6.4014,-6.4009,-6.4011,-6.4031,-6.4032,-6.4019,-6.4017,-6.402,-6.4034,-6.4041,-6.4042,-6.4075,-6.4045,-6.4046,-6.4047,-6.4048,-6.4133,-6.4134,0,0,0,0,0,0,-6.3982,-6.3985,-6.4028,-6.4029,-6.3996,-6.4011,-6.4013,-6.4024,-6.4032,-6.4032,-6.4021,-6.4019,-6.4038,-6.404,-6.4043,-6.4081,-6.4047,-6.4048,-6.4049,-6.4132,-6.4133,-6.4135,0,0,0,0,0,0,-6.3981,-6.3986,-6.4027,-6.4007,-6.4011,-6.4013,-6.4026,-6.4025,-6.4032,-6.4034,-6.4034,-6.4028,-6.4037,-6.4041,-6.4065,-6.4081,-6.4049,-6.4051,-6.413,-6.4132,-6.4134,-6.4159,0,0,0,0,0,0,-6.3979,-6.3985,-6.3999,-6.4007,-6.4013,-6.405,-6.4027,-6.4026,-6.4035,-6.4033,-6.404,-6.404,-6.4037,-6.4063,-6.4067,-6.4083,-6.4052,-6.4129,-6.4131,-6.4133,-6.4156,-6.4161,-6.4165,0,0,0,0,0,-6.3977,-6.4005,-6.4,-6.4005,-6.403,-6.4051,-6.4054,-6.405,-6.4037,-6.405,-6.4051,-6.404,-6.408,-6.4066,-6.407,-6.4087,-6.4128,-6.4131,-6.4133,-6.4154,-6.416,-6.4165,0,0,0,0,0,0,-6.3998,-6.4006,-6.4,-6.4032,-6.4041,-6.4048,-6.4064,-6.4056,-6.4068,-6.4066,-6.4059,-6.4061,-6.4087,-6.409,-6.4074,-6.4119,-6.4101,-6.4105,-6.4116,-6.4122,-6.4126,-6.4123,-6.4053,0,0,0,0,0,-6.4006,-6.4024,-6.403,-6.4057,-6.4062,-6.4062,-6.4071,-6.4068,-6.4076,-6.408,-6.4083,-6.409,-6.4104,-6.4114,-6.4127,-6.4158,-6.4158,-6.4172,-6.4176,-6.418,-6.4182,-6.4197,-6.4202,-6.4143,-6.4143,-6.4143,0,0,-6.4023,-6.403,-6.4041,-6.4061,-6.4068,-6.4085,-6.4066,-6.4085,-6.4096,-6.4082,-6.4105,-6.4108,-6.4116,-6.4144,-6.4156,-6.4147,-6.4199,-6.4183,-6.4186,-6.4186,-6.42,-6.4205,-6.421,-6.4145,-6.4145,-6.4145,0,0,-6.4063,-6.4071,-6.4093,-6.4101,-6.4111,-6.4111,-6.4117,-6.4125,-6.4126,-6.415,-6.4139,-6.4153,-6.4177,-6.4183,-6.4189,-6.4231,-6.4221,-6.4236,-6.4257,-6.4272,-6.4276,-6.428,-6.4293,-6.4298,-6.4239,-6.4239,-6.4239,0,-6.4082,-6.4108,-6.4106,-6.4125,-6.4133,-6.4123,-6.4145,-6.4151,-6.4165,-6.417,-6.4161,-6.4191,-6.4196,-6.4224,-6.4234,-6.424,-6.4245,-6.4233,-6.4276,-6.428,-6.4284,-6.4296,-6.4301,-6.424,-6.424,-6.424,-6.424,0,-6.413,-6.4148,-6.4165,-6.418,-6.419,-6.4211,-6.421,-6.4221,-6.4217,-6.4217,-6.4241,-6.4247,-6.426,-6.4267,-6.4263,-6.4294,-6.4287,-6.4277,-6.4258,-6.4291,-6.4302,-6.4306,-6.4243,-6.4242,-6.4242,-6.4241,0,0,-6.4181,-6.4194,-6.42,-6.4206,-6.4217,-6.423,-6.425,-6.4264,-6.4272,-6.4283,-6.4297,-6.4319,-6.4309,-6.4316,-6.4313,-6.4326,-6.4356,-6.4314,-6.4314,-6.4319,-6.4388,-6.4393,-6.4399,-6.435,-6.4351,-6.4352,-6.4386,0,-6.4218,-6.4253,-6.4252,-6.4284,-6.4299,-6.429,-6.4307,-6.4315,-6.4316,-6.4329,-6.433,-6.4344,-6.4332,-6.4336,-6.4349,-6.4349,-6.4369,-6.4347,-6.4362,-6.4362,-6.4357,-6.4405,-6.4411,-6.4443,-6.4391,-6.4391,-6.4392,0,-6.4266,-6.4278,-6.4312,-6.432,-6.4327,-6.4342,-6.4354,-6.4367,-6.4375,-6.4375,-6.4384,-6.4378,-6.4396,-6.438,-6.4404,-6.4389,-6.4395,-6.4397,-6.4398,-6.4397,-6.4377,-6.4402,-6.4453,-6.4457,-6.4399,-6.4399,-6.4398,0,-6.4296,-6.4322,-6.4345,-6.435,-6.4361,-6.4371,-6.4376,-6.4384,-6.4392,-6.4402,-6.4407,-6.442,-6.4426,-6.4435,-6.4433,-6.4421,-6.4457,-6.444,-6.4455,-6.4455,-6.4461,-6.446,-6.4511,-6.447,-6.4469,-6.4469,-6.4469,0,-6.4336,-6.4357,-6.4358,-6.4372,-6.4394,-6.4392,-6.4414,-6.4417,-6.4424,-6.4437,-6.4431,-6.4443,-6.444,-6.4452,-6.445,-6.4469,-6.4473,-6.4472,-6.4471,-6.4471,-6.4471,-6.4473,-6.4469,-6.4471,-6.447,-6.447,-6.447,0,-6.4372,-6.4375,-6.4399,-6.4407,-6.441,-6.4425,-6.4432,-6.4444,-6.4446,-6.4462,-6.4466,-6.4468,-6.4482,-6.4481,-6.4497,-6.4495,-6.4518,-6.4516,-6.4515,-6.4514,-6.4528,-6.4526,-6.458,-6.4586,-6.4543,-6.4543,-6.4544,0,-6.4396,-6.4412,-6.4422,-6.4431,-6.4437,-6.4451,-6.446,-6.4459,-6.4468,-6.4478,-6.4489,-6.4503,-6.4513,-6.4535,-6.4537,-6.4548,-6.4544,-6.4563,-6.4546,-6.4545,-6.4542,-6.454,-6.454,-6.4565,-6.4565,-6.4566,-6.4566,0,-6.4438,-6.4438,-6.4451,-6.4465,-6.4476,-6.4486,-6.4495,-6.4503,-6.4502,-6.4513,-6.4527,-6.4535,-6.4552,-6.4564,-6.4575,-6.4579,-6.4572,-6.4572,-6.4576,-6.4575,-6.4573,-6.4571,-6.4521,-6.457,-6.457,-6.4569,-6.4569,-6.4569,-6.4467,-6.4479,-6.4489,-6.4503,-6.451,-6.4519,-6.4531,-6.4535,-6.4547,-6.456,-6.4559,-6.4575,-6.4582,-6.4596,-6.4601,-6.4612,-6.4606,-6.4612,-6.4613,-6.4614,-6.4614,-6.4573,-6.4615,-6.4615,-6.4615,-6.4615,-6.4614,0,-6.4506,-6.4511,-6.4525,-6.4539,-6.455,-6.4545,-6.4555,-6.4564,-6.4578,-6.4586,-6.4597,-6.4613,-6.4625,-6.4629,-6.464,-6.4649,-6.4646,-6.4651,-6.4649,-6.465,-6.4621,-6.4615,-6.4654,-6.4654,-6.4654,-6.4654,-6.4654,-6.4654,-6.4527,-6.4548,-6.4549,-6.4573,-6.4578,-6.4594,-6.46,-6.4608,-6.4614,-6.4633,-6.4643,-6.4646,-6.4652,-6.4664,-6.4675,-6.4675,-6.4679,-6.4685,-6.4684,-6.4656,-6.4652,-6.4648,-6.4643,-6.4687,-6.4687,-6.4713,-6.4713,-6.4713]},{"header":{"parameterUnit":"m.s-1","parameterCategory":1,"la1":30.2991,"la2":30.254,"lo1":-89.0895,"lo2":-89.0444,"dy":0.0017,"dx":0.0017,"nx":28,"ny":28,"refTime":"2025-07-23T21:00:00:Z","depth":0,"parameterNumber":3,"parameterNumberName":"V-component_of_WINDS"},"data":[0,0,0,0,0,0,0,0,0,0,0,0,0,0,0,0,0,0,0,0,0,0,0,0,0,0,0,0,0,0,0,0,0,0,0,0,0,0,0,0,0,0,0,0,0,0,0,0,0,0,0,0,0,0,0,0,0,0,3.1395,3.1401,0,3.1971,3.1978,3.1984,3.2157,3.2154,3.2151,3.2148,3.2739,3.2757,3.2775,0,0,0,0,0,0,0,0,0,0,0,0,0,3.0448,3.0464,3.1395,3.1402,3.1409,3.197,3.1978,3.1986,3.2157,3.2154,3.215,3.2147,3.2733,3.2755,3.2777,0,0,0,0,0,0,0,0,0,0,0,0,0,3.0925,3.047,3.1393,3.1562,3.1583,3.1969,3.1978,3.1988,3.2158,3.2154,3.2149,3.2145,3.2725,3.2752,3.278,3.3039,0,0,3.2864,3.2876,0,0,0,0,0,0,0,0,3.0898,3.096,3.153,3.1551,3.1575,3.1988,3.1861,3.2341,3.2159,3.194,3.2148,3.2143,3.2492,3.2539,3.2657,3.3067,3.3092,3.2867,3.2884,3.2896,3.2903,0,0,0,0,0,0,0,3.0864,3.0936,3.1623,3.1538,3.1566,3.1611,3.1674,3.1953,3.2234,3.1959,3.1972,3.2038,3.2504,3.263,3.2672,3.3101,3.2866,3.2891,3.2908,3.2919,3.376,3.3765,0,0,0,0,0,0,3.0802,3.0907,3.1605,3.164,3.1219,3.1631,3.1702,3.186,3.2231,3.2284,3.2041,3.2044,3.2585,3.2639,3.2693,3.3027,3.2895,3.2921,3.2937,3.3754,3.3761,3.3767,0,0,0,0,0,0,3.0781,3.0863,3.1581,3.1278,3.1373,3.1653,3.1828,3.1873,3.2,3.2294,3.2345,3.2118,3.2583,3.2654,3.2954,3.3049,3.2934,3.2959,3.3747,3.3756,3.3764,3.3691,0,0,0,0,0,0,3.0753,3.0854,3.0954,3.1279,3.1388,3.183,3.1834,3.1888,3.2047,3.2056,3.2379,3.2429,3.2585,3.2911,3.2981,3.3085,3.2981,3.374,3.3751,3.3761,3.3686,3.3696,3.3705,0,0,0,0,0,3.0719,3.0909,3.0958,3.1041,3.1519,3.1835,3.1898,3.2074,3.2053,3.2158,3.2348,3.2419,3.3027,3.294,3.302,3.3134,3.3735,3.3748,3.3761,3.3682,3.3694,3.3704,0,0,0,0,0,0,3.0588,3.0955,3.1013,3.1314,3.1542,3.1863,3.2,3.208,3.2319,3.2317,3.2526,3.2598,3.2883,3.3039,3.2935,3.3409,3.3384,3.3413,3.3296,3.331,3.3319,3.3277,3.3004,0,0,0,0,0,3.0594,3.0819,3.1128,3.1364,3.1476,3.1718,3.1862,3.1978,3.2223,3.2321,3.2532,3.2768,3.3013,3.317,3.3411,3.3709,3.3785,3.3828,3.3836,3.3842,3.3866,3.4041,3.4065,3.3809,3.3809,3.3809,0,0,3.0609,3.0837,3.0966,3.1343,3.1534,3.1765,3.1798,3.2039,3.2214,3.2357,3.2654,3.2818,3.3095,3.3396,3.3539,3.3534,3.3954,3.3859,3.3861,3.3883,3.4057,3.408,3.4102,3.3818,3.3817,3.3815,0,0,3.0755,3.0948,3.1169,3.136,3.1649,3.181,3.1862,3.2174,3.2289,3.2589,3.2704,3.2914,3.333,3.3525,3.3678,3.3903,3.3979,3.3976,3.4024,3.4192,3.4212,3.4231,3.4316,3.4343,3.3998,3.3998,3.3998,0,3.0737,3.1089,3.1272,3.151,3.1675,3.1817,3.2044,3.222,3.2572,3.2684,3.2673,3.3203,3.3399,3.375,3.3805,3.3923,3.3993,3.394,3.4194,3.4215,3.4236,3.4319,3.4349,3.3996,3.3996,3.3996,3.3996,0,3.1055,3.1297,3.1441,3.178,3.1961,3.2191,3.2412,3.2573,3.2674,3.2837,3.3144,3.3385,3.368,3.3771,3.3871,3.4139,3.4128,3.4153,3.4133,3.4255,3.4337,3.4369,3.3993,3.3994,3.3994,3.3995,0,0,3.1133,3.1574,3.1624,3.1782,3.2113,3.2305,3.2543,3.2833,3.2969,3.3208,3.3416,3.3767,3.3795,3.3969,3.4093,3.4239,3.4408,3.4248,3.4258,3.4273,3.4722,3.4703,3.4737,3.4459,3.4466,3.4471,3.47,0,3.1324,3.1757,3.1932,3.2283,3.2513,3.2653,3.2862,3.3089,3.3248,3.3466,3.3642,3.389,3.3904,3.4011,3.4162,3.4355,3.4501,3.434,3.4658,3.4667,3.4587,3.4779,3.4759,3.4963,3.4733,3.4739,3.4743,0,3.1605,3.1849,3.2223,3.2532,3.2634,3.2819,3.3101,3.3307,3.3569,3.3675,3.3871,3.3988,3.4247,3.4208,3.457,3.4456,3.4597,3.4711,3.4723,3.4762,3.4713,3.4826,3.5033,3.5064,3.4794,3.479,3.4786,0,3.1629,3.2051,3.2332,3.2462,3.2827,3.2954,3.3113,3.337,3.3535,3.3782,3.3891,3.4164,3.4314,3.4523,3.4712,3.4665,3.5058,3.5033,3.5155,3.5151,3.5233,3.5226,3.5468,3.5317,3.5317,3.5316,3.5315,0,3.1826,3.2051,3.2348,3.2521,3.2779,3.2978,3.3228,3.3396,3.3625,3.3834,3.3971,3.4165,3.4401,3.4626,3.4774,3.5054,3.5119,3.5214,3.5252,3.5204,3.5193,3.5301,3.5293,3.5325,3.5323,3.5321,3.532,0,3.1898,3.2105,3.2421,3.2742,3.2829,3.3005,3.3281,3.3456,3.3621,3.3886,3.3959,3.422,3.4493,3.4701,3.5054,3.5154,3.5452,3.549,3.5364,3.5384,3.5496,3.5483,3.5819,3.5875,3.5681,3.5683,3.5684,0,3.2011,3.2188,3.2529,3.268,3.2838,3.3078,3.3248,3.3452,3.3624,3.3938,3.4075,3.4357,3.4594,3.5023,3.5245,3.5517,3.5565,3.5664,3.5607,3.5555,3.5572,3.556,3.5581,3.5672,3.5673,3.5674,3.5674,0,3.2191,3.2287,3.2526,3.2803,3.3002,3.323,3.346,3.3576,3.3822,3.4008,3.429,3.4473,3.4836,3.5116,3.5411,3.5576,3.5668,3.5691,3.5734,3.5689,3.561,3.5658,3.5388,3.5682,3.5682,3.5681,3.5681,3.568,3.2291,3.2457,3.2724,3.2988,3.3183,3.3397,3.3578,3.3768,3.4006,3.4318,3.4424,3.4715,3.4978,3.5384,3.5552,3.5784,3.5786,3.5847,3.5864,3.5877,3.5875,3.557,3.5837,3.5838,3.5838,3.5838,3.5838,0,3.2482,3.2662,3.2903,3.3222,3.3431,3.3499,3.3759,3.3929,3.4184,3.442,3.4652,3.4977,3.525,3.5495,3.578,3.5919,3.5968,3.5987,3.598,3.6018,3.5854,3.579,3.5942,3.5942,3.5942,3.5942,3.5942,3.5942,3.2606,3.2892,3.302,3.3405,3.3585,3.3872,3.4015,3.4214,3.4405,3.4762,3.499,3.5148,3.539,3.5694,3.5949,3.6015,3.6114,3.6123,3.6199,3.6042,3.6029,3.6016,3.5957,3.6142,3.6143,3.6345,3.6346,3.6348]}]]